Wheaton NDB, MN

6:45 AM CDT on September 26, 2017 (GMT -0500)
Wheaton Municipal

Weather History for KETH - March, 2013

Change the Weather History Date:

Friday, March 1, 2013

  Actual Average Record
Temperature  
Mean Temperature 12 °F -  
Max Temperature 23 °F 33 °F 69 °F (1992)
Min Temperature 1 °F 15 °F -22 °F (1962)
Degree Days  
Heating Degree Days 53    
Moisture  
Dew Point 9 °F    
Average Humidity 87    
Maximum Humidity 93    
Minimum Humidity 74    
Precipitation  
Precipitation 0.00 in - - ()
Sea Level Pressure  
Sea Level Pressure 30.38 in    
Wind  
Wind Speed 3 mph (WNW)    
Max Wind Speed 6 mph    
Max Gust Speed -    
Visibility 8 miles    
Events Snow    
Averages and records for this station are not official NWS values.
T = Trace of Precipitation, MM = Missing Value Source: NWS Daily Summary

Daily Weather History Graph

Daily Weather History Graph

Search for Another Location

Airport or City:

Trip Planner

Search our weather history database for the weather conditions in past years. The results will help you decide how hot, cold, wet, or windy it might be!

Date:

Astronomy

Mar. 01, 2013 Rise Set
Actual Time 7:04 AM CST 6:13 PM CST
Civil Twilight 6:34 AM CST 6:43 PM CST
Nautical Twilight 6:00 AM CST 7:17 PM CST
Astronomical Twilight 5:25 AM CST 7:52 PM CST
Moon 11:05 PM CST (3/1) 8:36 AM CST (3/1)
Length of Visible Light 12h 08m
Length of Day
11h 09m
Waning Gibbous, 83% of the Moon is Illuminated
Mar 1
Waning Gibbous
Mar 4
Last Quarter
Mar 11
New
Mar 19
First Quarter
Mar 27
Full

Hourly Weather History & Observations

Time (CST) Temp. Windchill Dew Point Humidity Pressure Visibility Wind Dir Wind Speed Gust Speed Precip Events Conditions
12:15 AM 14.0 °F 8.2 °F 12.2 °F 93% 30.30 in 10.0 mi WNW 3.5 mph - N/A   Scattered Clouds
12:34 AM 14.0 °F 6.5 °F 10.4 °F 86% 30.30 in 10.0 mi NW 4.6 mph - N/A   Mostly Cloudy
12:54 AM 14.0 °F 6.5 °F 10.4 °F 86% 30.30 in 10.0 mi WNW 4.6 mph - N/A   Overcast
1:14 AM 14.0 °F 8.2 °F 10.4 °F 86% 30.30 in 10.0 mi WNW 3.5 mph - N/A   Scattered Clouds
1:35 AM 12.2 °F 4.3 °F 10.4 °F 92% 30.31 in 10.0 mi WNW 4.6 mph - N/A   Clear
1:54 AM 10.4 °F 2.2 °F 8.6 °F 92% 30.31 in 10.0 mi NW 4.6 mph - N/A   Clear
2:14 AM 10.4 °F 2.2 °F 8.6 °F 92% 30.31 in 10.0 mi NW 4.6 mph - N/A   Scattered Clouds
2:35 AM 8.6 °F -1.3 °F 6.8 °F 92% 30.32 in 10.0 mi NW 5.8 mph - N/A   Scattered Clouds
2:54 AM 10.4 °F 0.8 °F 8.6 °F 92% 30.32 in 10.0 mi NW 5.8 mph - N/A   Clear
3:15 AM 8.6 °F 0.1 °F 6.8 °F 92% 30.33 in 10.0 mi WNW 4.6 mph - N/A   Clear
3:34 AM 8.6 °F 0.1 °F 6.8 °F 92% 30.33 in 10.0 mi NW 4.6 mph - N/A   Clear
3:54 AM 8.6 °F 2.0 °F 6.8 °F 92% 30.33 in 7.0 mi WNW 3.5 mph - N/A   Clear
4:14 AM 10.4 °F 4.0 °F 6.8 °F 85% 30.33 in 7.0 mi NW 3.5 mph - N/A   Clear
4:34 AM 8.6 °F - 6.8 °F 92% 30.34 in 7.0 mi Calm Calm - N/A   Clear
4:54 AM 8.6 °F 2.0 °F 6.8 °F 92% 30.34 in 7.0 mi WNW 3.5 mph - N/A   Clear
5:15 AM 6.8 °F -0.1 °F 3.2 °F 85% 30.35 in 7.0 mi West 3.5 mph - N/A   Clear
5:34 AM 6.8 °F - 3.2 °F 85% 30.35 in 7.0 mi Calm Calm - N/A   Clear
6:14 AM 3.2 °F - 1.4 °F 92% 30.36 in 7.0 mi Calm Calm - N/A   Clear
6:35 AM 3.2 °F - 1.4 °F 92% 30.36 in 10.0 mi Calm Calm - N/A   Clear
6:54 AM 3.2 °F - 1.4 °F 92% 30.37 in 7.0 mi Calm Calm - N/A Snow Light Snow
7:15 AM 3.2 °F - 1.4 °F 92% 30.37 in 4.0 mi Calm Calm - N/A Snow Light Snow
7:35 AM 1.4 °F - -0.4 °F 92% 30.38 in 2.5 mi Calm Calm - N/A Snow Light Snow
7:54 AM 1.4 °F - -0.4 °F 92% 30.39 in 5.0 mi Calm Calm - N/A Snow Light Snow
8:15 AM 5.0 °F - 1.4 °F 85% 30.39 in 7.0 mi Calm Calm - N/A Snow Light Snow
8:34 AM 5.0 °F - 1.4 °F 85% 30.39 in 7.0 mi Calm Calm - N/A Snow Light Snow
8:55 AM 6.8 °F - 5.0 °F 92% 30.40 in 4.0 mi Calm Calm - N/A Snow Light Snow
9:14 AM 8.6 °F - 5.0 °F 85% 30.40 in 7.0 mi Calm Calm - N/A Snow Light Snow
9:34 AM 10.4 °F - 8.6 °F 92% 30.40 in 7.0 mi Calm Calm - N/A Snow Light Snow
9:54 AM 10.4 °F - 8.6 °F 92% 30.41 in 10.0 mi Calm Calm - N/A   Clear
10:15 AM 12.2 °F 6.1 °F 10.4 °F 92% 30.41 in 10.0 mi WNW 3.5 mph - N/A   Clear
10:35 AM 12.2 °F 6.1 °F 10.4 °F 92% 30.42 in 10.0 mi West 3.5 mph - N/A   Clear
10:55 AM 12.2 °F 4.3 °F 10.4 °F 92% 30.42 in 10.0 mi WNW 4.6 mph - N/A   Clear
11:15 AM 15.8 °F 8.6 °F 10.4 °F 79% 30.42 in 10.0 mi NW 4.6 mph - N/A   Clear
11:35 AM 17.6 °F 12.3 °F 12.2 °F 79% 30.42 in 10.0 mi NW 3.5 mph - N/A   Clear
11:55 AM 17.6 °F 9.3 °F 12.2 °F 79% 30.42 in 10.0 mi WNW 5.8 mph - N/A   Clear
12:15 PM 19.4 °F 12.8 °F 14.0 °F 80% 30.42 in 10.0 mi WNW 4.6 mph - N/A   Clear
12:34 PM 21.2 °F 13.6 °F 14.0 °F 74% 30.42 in 10.0 mi West 5.8 mph - N/A   Clear
12:54 PM 19.4 °F 12.8 °F 14.0 °F 80% 30.42 in 10.0 mi West 4.6 mph - N/A   Clear
1:34 PM 21.2 °F 14.9 °F 15.8 °F 80% 30.40 in 10.0 mi WNW 4.6 mph - N/A   Clear
1:55 PM 21.2 °F 14.9 °F 15.8 °F 80% 30.39 in 10.0 mi NW 4.6 mph - N/A   Clear
2:15 PM 23.0 °F 17.0 °F 15.8 °F 74% 30.39 in 10.0 mi NW 4.6 mph - N/A   Clear
2:35 PM 21.2 °F 14.9 °F 15.8 °F 80% 30.39 in 10.0 mi NW 4.6 mph - N/A   Clear
2:55 PM 21.2 °F 13.6 °F 15.8 °F 80% 30.39 in 10.0 mi NW 5.8 mph - N/A   Clear
3:15 PM 21.2 °F 13.6 °F 15.8 °F 80% 30.39 in 10.0 mi NW 5.8 mph - N/A   Clear
3:35 PM 21.2 °F 13.6 °F 15.8 °F 80% 30.39 in 10.0 mi NW 5.8 mph - N/A   Clear
3:55 PM 23.0 °F 17.0 °F 15.8 °F 74% 30.39 in 10.0 mi NW 4.6 mph - N/A   Clear
4:15 PM 21.2 °F 13.6 °F 15.8 °F 80% 30.39 in 10.0 mi NW 5.8 mph - N/A   Clear
4:35 PM 21.2 °F 13.6 °F 15.8 °F 80% 30.40 in 10.0 mi NW 5.8 mph - N/A   Clear
4:54 PM 21.2 °F 14.9 °F 15.8 °F 80% 30.40 in 10.0 mi NW 4.6 mph - N/A   Clear
5:15 PM 19.4 °F 14.3 °F 15.8 °F 86% 30.40 in 10.0 mi NW 3.5 mph - N/A   Clear
5:55 PM 17.6 °F 12.3 °F 14.0 °F 86% 30.41 in 10.0 mi NW 3.5 mph - N/A   Clear
6:15 PM 17.6 °F 10.7 °F 12.2 °F 79% 30.41 in 10.0 mi WNW 4.6 mph - N/A   Clear
6:35 PM 15.8 °F 10.2 °F 12.2 °F 86% 30.41 in 10.0 mi WNW 3.5 mph - N/A   Clear
6:55 PM 15.8 °F - 12.2 °F 86% 30.40 in 10.0 mi Calm Calm - N/A   Clear
7:15 PM 14.0 °F 8.2 °F 10.4 °F 86% 30.40 in 10.0 mi WNW 3.5 mph - N/A   Clear
7:34 PM 12.2 °F 6.1 °F 10.4 °F 92% 30.41 in 10.0 mi West 3.5 mph - N/A   Clear
7:54 PM 10.4 °F 4.0 °F 8.6 °F 92% 30.41 in 7.0 mi West 3.5 mph - N/A   Clear
8:15 PM 10.4 °F - 8.6 °F 92% 30.41 in 7.0 mi Calm Calm - N/A   Clear
8:35 PM 10.4 °F - 8.6 °F 92% 30.41 in 7.0 mi Calm Calm - N/A   Clear
8:54 PM 12.2 °F - 10.4 °F 92% 30.39 in 7.0 mi Calm Calm - N/A   Clear
9:14 PM 8.6 °F 2.0 °F 6.8 °F 92% 30.40 in 5.0 mi West 3.5 mph - N/A   Clear
9:35 PM 8.6 °F - 6.8 °F 92% 30.40 in 7.0 mi Calm Calm - N/A   Clear
9:54 PM 8.6 °F - 6.8 °F 92% 30.40 in 7.0 mi Calm Calm - N/A   Clear
10:14 PM 10.4 °F - 8.6 °F 92% 30.39 in 5.0 mi Calm Calm - N/A   Clear
10:35 PM 8.6 °F - 6.8 °F 92% 30.39 in 5.0 mi Calm Calm - N/A   Clear
10:54 PM 5.0 °F - 3.2 °F 92% 30.38 in 2.0 mi Calm Calm - N/A   Clear
11:15 PM 6.8 °F - 3.2 °F 85% 30.37 in 5.0 mi Calm Calm - N/A   Clear
11:35 PM 5.0 °F - 1.4 °F 85% 30.38 in 7.0 mi Calm Calm - N/A   Clear
11:54 PM 3.2 °F - 1.4 °F 92% 30.37 in 7.0 mi Calm Calm - N/A   Clear